Regional Weather Roundup
Issued by NWS Goodland, KS

Home | Current Version | Previous Version | Text Only | Print | Product List | Glossary Off
Versions: 1 2 3 4 5 6 7 8 9 10 11 12 13 14 15 16 17 18 19 20 21 22 23 24 25 26 27 28 29 30 31 32 33 34 35 36 37 38 39 40 41 42 43 44 45 46 47 48 49 50

730
ASUS43 KGLD 231608
RWRGLD

GOODLAND FORECAST AREA HOURLY WEATHER ROUNDUP
NATIONAL WEATHER SERVICE GOODLAND KS
1000 AM MDT THU MAR 23 2017

...OFFICIAL OBSERVATIONS...

CITY           SKY/WX    TMP DP  RH WIND       PRES   REMARKS
GOODLAND KS    CLOUDY    53  49  86 S23       29.69F
HILL CITY KS   CLOUDY    62  58  86 S10       29.75S FOG
IMPERIAL NEB   SUNNY     56  48  74 S9        29.67F
MCCOOK NEB     CLOUDY    56  56 100 SE12      29.69F FOG
AKRON CO       SUNNY     61  44  53 W8        29.69S
BURLINGTON CO  SUNNY     66  52  60 SW12      29.70F
LIMON CO       SUNNY     59  43  55 NE3       29.71F
$$

...UNOFFICIAL OBSERVATIONS...

CITY           SKY/WX    TMP DP  RH WIND       PRES   REMARKS
LENORA KS        N/A     60  32  34 S13         N/A
NORTON KS      CLOUDY    55  54  94 SE13      29.72  FOG
SHARON SPRINGS   N/A     59  54  83 S20G29      N/A
TRENTON NEB      N/A     60  32  34 S10         N/A
YUMA CO        FAIR      66  45  45 N8        29.67S
$$




USA.gov is the U.S. government's official web portal to all federal, state and local government web resources and services.